星链-1117 (STARLINK-1117 )

导读

STARLINK-1117是美国太空探索技术公司星链互联网卫星项目的卫星之一,于2020年1月7日发射升空,属于星链早期部署批次卫星,主要承担提供全球低速率卫星互联网接入的任务,运行在近地轨道,是星链星座构建全球卫星通信网络过程中的组成单元。

Basic Information
目录编号:
44952
目录名称:
STARLINK-1117
国际标识:
2020-001AQ
轨道中心:
EARTH
卫星名称:
星链-1117
卫星全名:
星链-1117 (STARLINK-1117 )
卫星状态:
已陨落 最后检测时间 2025-06-01
发射日期:
2020-01-07 UTC
国别 :
美国 (US)
星等 :
--
Orbit Information
数据来源 国际轨道数据
星历时间: 2025-06-01T05:35:47+0800
轨道信息已过期377天
半长轴: 6528.964km
偏心率: 0.0006501
轨道倾角: 53.027°
近地点辐角 232.341°
升交点赤经 93.168°
平近点角 236.948°
近地点: 146.584km
远地点: 155.074km
周期: 87.504分钟
每日圈数: 16.456459
Detailed Information
固有亮度:
5
最大亮度:
2.5
卫星平台:
Starlink V1.0
覆盖范围:
全球
运营商:
太空探索技术公司
运营商所在国:
美国
制造商(研发单位):
太空探索技术公司
制造商所在国:
美国
使用方式:
暂无
Satellite Introduction
星链(Starlink)计划是由太空探索技术公司(SpaceX)提出的一个巨型低轨卫星互联网星座项目,计划在2019年至2024年间在太空搭建由约1.2万颗卫星组成的“星链”网络,其中1584颗将部署在地球上空550千米处的近地轨道,并从2020年开始工作。该卫星仍在工作。